Flag for Australia Weather past 2 weeks in Tamworth, New South Wales, Australia

Now
64 °F

Sunny.


Feels Like: 64 °F
Forecast: 60 / 89 °F
Wind: 9 mph from Northeast

Location: Tamworth Airport

Current Time: Oct 24, 2014 at 9:10:22 AM

Latest Report: Oct 24, 2014 at 8:00 AM


Visibility: N/A

Pressure: 30.15 "Hg

Humidity: 64%

Dew point: 52 °F

Location of TamworthLocation

Historic Weather in Tamworth — Graph

°F

Tamworth temperature yesterday

Maximum temperature yesterday: 88 °F (at 1:30 PM)
Minimum temperature yesterday: 54 °F (at 3:30 AM)
Average temperature yesterday: 71 °F

Past Weeks' High & Low Weather Summary

 TemperatureHumidityPressure
High88 °F (Oct 20, 2:00 PM)94% (Oct 14, 1:00 AM)30.39 "Hg (Oct 14, 1:00 AM)
Low37 °F (Oct 16, 6:30 AM)16% (Oct 16, 5:00 PM)29.71 "Hg (Oct 13, 4:00 PM)
Average65 °F48%30.10 "Hg
* Reported Oct 9 8:00 AM — Oct 24 8:00 AM, Tamworth, Weather by CustomWeather, © 2014

Note: Actual official high and low records may vary slightly from our data, if they occured in-between our weather recording intervals... More about our weather records

Advertising

Tamworth weather history for previous 24 hours

 ConditionsComfort  
Time TempWeatherWind HumidityBarometerVisibility
8:00 AM
Oct 24
64 °FSunny.9 mph64%30.15 "HgN/A
7:00 AM59 °FSunny.5 mph72%30.15 "HgN/A
6:00 AM55 °FClear.No wind77%30.12 "HgN/A
5:30 AM57 °FClear.6 mph72%30.12 "HgN/A
5:00 AM57 °FClear.6 mph72%30.12 "HgN/A
4:00 AM59 °FClear.9 mph72%30.09 "HgN/A
3:30 AM59 °FClear.8 mph72%30.09 "HgN/A
3:00 AM61 °FClear.8 mph68%30.09 "HgN/A
2:30 AM61 °FClear.9 mph68%30.09 "HgN/A
2:00 AM61 °FClear.10 mph63%30.12 "HgN/A
1:00 AM64 °FClear.8 mph56%30.12 "HgN/A
12:00 AM64 °FClear.5 mph52%30.12 "HgN/A
11:30 PM
Oct 23
68 °FPassing clouds.7 mph49%30.15 "HgN/A
11:00 PM70 °FPassing clouds.7 mph46%30.12 "HgN/A
10:30 PM72 °FClear.9 mph44%30.12 "HgN/A
10:00 PM73 °FClear.13 mph41%30.12 "HgN/A
9:30 PM73 °FPassing clouds.14 mph41%30.12 "HgN/A
9:00 PM73 °FPassing clouds.8 mph41%30.09 "HgN/A
8:30 PM75 °FPassing clouds.12 mph39%30.09 "HgN/A
8:00 PM75 °FPassing clouds.1 mph34%30.07 "HgN/A
7:30 PM77 °FClear.5 mph32%30.04 "HgN/A
7:00 PM77 °FSunny.9 mph30%30.04 "HgN/A
6:30 PM81 °FSunny.12 mph26%30.04 "HgN/A
6:00 PM81 °FSunny.12 mph26%30.04 "HgN/A
5:00 PM84 °FSunny.18 mph23%30.01 "HgN/A
4:30 PM81 °FSunny.20 mph28%30.01 "HgN/A
4:00 PM84 °FScattered clouds.12 mph23%30.01 "HgN/A
3:30 PM86 °FScattered clouds.10 mph18%30.01 "HgN/A
3:00 PM86 °FScattered clouds.8 mph20%30.01 "HgN/A
2:30 PM86 °FScattered clouds.6 mph22%30.04 "HgN/A
2:00 PM88 °FScattered clouds.13 mph24%30.04 "HgN/A
1:30 PM88 °FScattered clouds.14 mph24%30.07 "HgN/A
1:00 PM82 °FSunny.6 mph26%30.09 "HgN/A
12:30 PM82 °FSunny.10 mph26%30.09 "HgN/A
12:00 PM81 °FSunny.9 mph30%30.12 "HgN/A
11:30 AM81 °FSunny.9 mph30%30.12 "HgN/A
11:00 AM79 °FSunny.8 mph32%30.15 "HgN/A
10:30 AM79 °FSunny.12 mph32%30.15 "HgN/A
10:00 AM77 °FSunny.12 mph34%30.15 "HgN/A
9:00 AM72 °FSunny.5 mph41%30.15 "HgN/A
Weather by CustomWeather, © 2014

See weather overviewHow to use our weather pages